Время (UTC), дата Ветер
(°,м/с) 
Видим.   Явления Облачность Т
(°С)
Тd
(°С)
f(%) Тe
(°С)
Pmin
(гПа)
dP
(гПа)
Po
(мм)
O2
(г/м3)
Тmin Tmax R s Состояние
почвы
00 01.07.12 020 (С) 10 км    10/10 800 м 
[Sc]
+15.2 +11.5 79 +19  1014.7  1.3  751  284           
03 01.07.12 330 (СЗ) >10 км    10/10 660 м 
[Sc]
+15.1 +12.3 83 +20  1015.2  0.4  751  284           
06 01.07.12 330 (СЗ) 10 км    10/10 700 м 
[Sc]
+15.6 +11.8 78 +20  1015.8  0.6  752  284  +15         
09 01.07.12 320 (СЗ) 10 км    10/10 660 м 
[Sc]
+15.6 +11.9 79 +20  1017.2  1.4  753  285           
12 01.07.12 340 (С) 10 км    10/10 750 м 
[Sc]
+16.7 +12.1 74 +22  1017.9  0.7  753  284           
15 01.07.12 010 (С) 10 км    10/10 840 м 
[Sc]
+16.8 +12.7 77 +23  1018.3  0.5  753  284    +17.3       
18 01.07.12 360 (С) 10 км    3/3 600 м 
[]
+15.5 +12.1 80 +21  1019  0.6  754  285    +17.3       
21 01.07.12 360 (С) 10 км    ясно 
+14.3 +12.6 89 +21  1019.4  0.3  754  286           
00 02.07.12 010 (С) 10 км    ясно 
+12.7 +11.5 92 +17  1019.1  -0.4  754  288           
03 02.07.12 010 (С) 10 км    10/10 240 м 
[St]
+12.8 +11.9 94 +17  1019.2  0.2  754  288           
06 02.07.12 020 (С) >10 км    9/9 400 м 
[St]
+15.2 +12 81 +19  1019.4  0.2  754  286  +12.2         
09 02.07.12 020 (С) >10 км    8/1 800 м средняя, верхняя 
[Cu hum|Ac lent|Cc]
+18.8 +13 69 +25  1018.2  -0.9  753  281           
12 02.07.12 060 (СВ) >10 км    10/10 840 м кучево-дожд. 
[Cb cap]
+20.7 +14.6 68 +29  1017  -1.1  753  279           
15 02.07.12 050 (СВ) >10 км    10/9 1000 м средняя 
[Ac As]
+20.1 +14.9 72 +29  1016.9  -0.1  753  279    +21.1       
18 02.07.12 020 (С) 10 км    8/0 средняя, верхняя 
[Ac cast|Ci sp]
+18.7 +15.3 81 +29  1016.7  -0.3  752  280    +21.1       
21 02.07.12 060 (СВ) 10 км  {ливн. осадки}  8/1 600 м верхняя 
[Sc diur, vesp|Ci sp]
+17.4 +15.2 87 +27  1015.7  -1.1  752  281           
00 03.07.12 060 (СВ) 10 км  {ливн. осадки}  8/0 средняя, верхняя 
[Ac lent|Ci fib]
+17.3 +15.8 91 +28  1014.7  -1  751  281           
03 03.07.12 050 (СВ) 10 км    1/0 средняя 
[Ac cast]
+19.4 +17.5 89 +33  1013.7  -0.8  750  278           
06 03.07.12 060 (СВ) >10 км    4/4 600 м 
[Cu med, cong]
+25.2 +19.8 72 +43  1012.8  -0.7  750  272  +16.9    0.0     
09 03.07.12 070 (В) >10 км    3/3 600 м 
[Cu med, cong]
+30.9 +18.3 47 +46  1011.6  -0.9  749  267           
12 03.07.12 120 (ЮВ) >10 км    4/4 600 м 
[Cu med, cong]
+32.4 +16.4 38 +44  1011  -0.5  749  266           
15 03.07.12 130 (ЮВ) >10 км    3/0 средняя 
[Ac cuf]
+30.6 +16.3 42 +42  1010.7  -0.4  748  268    +32.8       
18 03.07.12 140 (ЮВ) 10 км    3/3 1000 м 
[Cu hum]
+26.5 +16.5 54 +38  1012.1  -0.4  749  272    +32.8       
21 03.07.12 тихо () {10}  10 км  в посл. час дождь{гроза, ливн. осадки}  8/8 1000 м кучево-дожд. 
[Cb cap]
+21.4 +19.2 87 +38  1012.6  0.2  749  275           
00 04.07.12 170 (Ю) 10 км  {гроза, ливн. осадки}  1/1 600 м 
[Cu med, cong]
+19.7 +18.3 92 +36  1012.5  0.1  749  277           
03 04.07.12 170 (Ю) >10 км    8/8 960 м 
[Cu hum]
+21.4 +18.9 86 +38  1013.9  1.4  750  276           
06 04.07.12 260 (З) >10 км    5/5 600 м 
[Sc diur, vesp]
+25 +18.4 67 +40  1014.1  0.3  751  273  +19.3       
09 04.07.12 170 (Ю) >10 км    4/3 600 м верхняя 
[Cu hum|Ci fib]
+27.9 +13.8 42 +35  1013.6  -0.4  750  272           
12 04.07.12 230 (ЮЗ) >10 км    4/3 600 м верхняя 
[Cu hum|Ci fib]
+29 +14 40 +36  1013.1  -0.5  750  270           
15 04.07.12 260 (З) >10 км    3/3 600 м 
[Cu hum]
+28.4 +12.6 38 +33  1013.1  750  271    +29.1       
18 04.07.12 180 (Ю) 10 км    3/0 верхняя 
[Ci fib]
+22.7 +15.5 64 +32  1013.7  0.4  750  276    +29.1       
21 04.07.12 180 (Ю) 10 км    4/0 верхняя 
[Ci fib]
+20 +15.5 75 +30  1013.8  0.1  750  278           
00 05.07.12 тихо ()   10 км    3/0 верхняя 
[Ci fib]
+19.1 +15.7 81 +29  1014.1  0.2  750  279           
03 05.07.12 150 (ЮВ) >10 км    6/0 верхняя 
[Ci]
+22.5 +17.7 74 +36  1014.4  0.5  751  275           
06 05.07.12 300 (СЗ) 10 км    6/1 1000 м верхняя 
[Cu med, cong|Ci fib]
+26.6 +17.7 58 +40  1014.7  0.5  751  272  +19.3         
09 05.07.12 310 (СЗ) >10 км    6/6 1000 м 
[Cu med, cong]
+28.4 +16.6 49 +40  1014.7  0.1  751  271           
12 05.07.12 320 (СЗ) 10 км  гроза без осадков  8/4 600 м кучево-дожд., средняя 
[Cb cap|Ac cast]
+28.5 +17.6 52 +42  1014.5  0.1  751  270           
15 05.07.12 020 (С) 10 км  слаб. ливневой дождь{гроза}  8/3 600 м кучево-дожд., средняя 
[Cb cap|Ac cast]
+24.5 +18.7 70 +40  1015  0.3  751  273    +30.2       
18 05.07.12 360 (С) 10 км  {гроза, ливн. осадки}  8/6 600 м кучево-дожд., средняя 
[Cb calv|Ac As]
+23 +15 61 +32  1016.3  1.1  752  276    +30.2  0.0     
21 05.07.12 040 (СВ) 10 км  {ливн. осадки}  4/0 <0100 м средняя 
[Ac lent]
+21.3 +19 87 +38  1016.3  752  277           
00 06.07.12 040 (СВ) 10 км  {ливн. осадки}  3/0 средняя 
[Ac lent]
+19.7 +17.9 89 +35  1017  0.6  753  279           
03 06.07.12 060 (СВ) >10 км    3/0 средняя 
[Ac lent]
+20.5 +17.3 82 +33  1017.5  0.5  753  278           
06 06.07.12 070 (В) >10 км    6/0 <0100 м верхняя 
[Ci]
+23.8 +17.7 69 +37  1017.7  0.3  753  275  +19         
09 06.07.12 040 (СВ) >10 км    8/5 1000 м верхняя 
[Cu med, cong|Ci fib]
+26.3 +15.4 51 +36  1017.2  -0.4  753  274           
12 06.07.12 030 (СВ) >10 км    4/0 1000 м 
[Cu hum]
+27.2 +11.9 39 +31  1016.6  -0.6  752  274           
15 06.07.12 020 (С) >10 км    5/0 верхняя 
[Cc]
+26.2 +11.1 39 +29  1016.2  -0.4  752  275           
18 06.07.12 050 (СВ) 10 км    3/0 средняя 
[Ac cast]
+22.1 +10.8 49 +24  1017.3  0.9  753  279    +27.7       
21 06.07.12 050 (СВ) 10 км    4/0 средняя 
[Ac cast]
+19.1 +9.6 54 +21  1017.3  0.1  753  282           
00 07.07.12 060 (СВ) 10 км    3/0 средняя 
[Ac cast]
+17.4 +9.3 59 +18  1017.1  -0.3  753  283           
03 07.07.12 070 (В) >10 км    3/0 верхняя 
[Ci fib]
+17.8 +10.2 61 +19  1017.4  0.3  753  283           
06 07.07.12 050 (СВ) >10 км    5/3 600 м верхняя 
[Cu hum|Ci fib]
+20.9 +9.5 48 +21  1017.1  0.1  753  280  +16.6         
09 07.07.12 060 (СВ) >10 км    1/1 700 м 
[Cu hum]
+23.1 +5.4 32 +23  1016.5  -0.6  752  279           
12 07.07.12 050 (СВ) >10 км    3/0 верхняя 
[Ci fib]
+24.3 +3.3 25 +24  1015.5  -0.9  752  278           
15 07.07.12 030 (СВ) >10 км    ясно 
+23.3 +4.6 30 +23  1015.1  -0.4  751  278    +24.8       
18 07.07.12 060 (СВ) 10 км    ясно 
+19.8 +6.7 43 +21  1015.8  0.5  752  281    +24.8       
21 07.07.12 050 (СВ) 10 км    ясно 
+17.2 +7.2 52 +19  1016.4  0.5  752  284           
00 08.07.12 050 (СВ) 10 км    ясно 
+15.4 +7.9 61 +16  1016.9  0.4  752  286           
03 08.07.12 050 (СВ) >10 км    ясно 
+17.6 +8.7 56 +19  1017.6  0.8  753  284           
06 08.07.12 060 (СВ) >10 км    ясно 
+21.2 +6.8 39 +21  1017.1  -0.3  753  280           
09 08.07.12 060 (СВ) >10 км    ясно 
+23.5 +5.6 31 +24  1016.6  -0.4  752  278           
12 08.07.12 050 (СВ) >10 км    3/0 <0100 м верхняя 
[Ci fib]
+25.3 +5.5 28 +25  1015.9  -0.7  752  276           
15 08.07.12 060 (СВ) >10 км    ясно 
+24.6 +5.7 30 +25  1015.1  -0.8  751  277           
18 08.07.12 090 (В) 10 км    1/0 <0100 м средняя 
[As op]
+20.9 +7.2 41 +21  1015.7  0.4  752  280    +25.6       
21 08.07.12 110 (В) 10 км    ясно 
+18.7 +7 46 +20  1016.2  0.4  752  282           
00 09.07.12 150 (ЮВ) 10 км    ясно 
+14.1 +8.8 70 +15  1016.8  0.4  752  287           
03 09.07.12 170 (Ю) >10 км    3/0 <0100 м верхняя 
[Ci fib]
+17.3 +10.2 63 +20  1017.2  0.6  753  283           
06 09.07.12 270 (З) >10 км    5/0 верхняя 
[Ci fib]
+24.3 +7.5 34 +24  1016.5  0.6  752  277  +13.4         
09 09.07.12 270 (З) >10 км    ясно 
+25.7 +7 30 +26  1015.7  -0.7  752  276           
12 09.07.12 260 (З) >10 км    ясно 
+27.1 +7.1 28 +27  1014.8  -0.8  751  274           
15 09.07.12 260 (З) >10 км    ясно 
+26.7 +7.2 29 +27  1013.7  -1.2  750  274    +27.3       
18 09.07.12 170 (Ю) 10 км    ясно 
+20.9 +10.7 52 +23  1013.6  -1.2  750  279           
21 09.07.12 160 (Ю) 10 км    ясно 
+18.8 +7.7 48 +20  1014.5  0.8  751  282           
00 10.07.12 160 (Ю) 10 км    ясно 
+16.8 +7.7 55 +18  1014.4  -0.2  751  284           
03 10.07.12 160 (Ю) >10 км    ясно 
+19.3 +10.1 55 +21  1014.4  0.1  751  281           
06 10.07.12 240 (ЮЗ) >10 км    ясно 
+25.4 +9 35 +25  1014.6  0.4  751  275  +15.8         
09 10.07.12 250 (З) >10 км    ясно 
+28.2 +8 28 +28  1014.3  0.1  751  273           
12 10.07.12 250 (З) >10 км    ясно 
+29.4 +6 23 +29  1013.9  -0.4  751  272           
15 10.07.12 290 (З) >10 км    ясно 
+29.2 +8 26 +29  1013.8  0.1  750  272    +29.8       
18 10.07.12 180 (Ю) 10 км    ясно 
+21.6 +12.1 55 +26  1014.9  0.8  751  278    +29.8       
21 10.07.12 тихо ()   10 км    ясно 
+18.8 +10.9 60 +21  1015.7  0.7  752  281           
00 11.07.12 тихо ()   10 км    ясно 
+17.4 +11.1 66 +20  1016.6  0.8  752  283           
03 11.07.12 160 (Ю) >10 км    1/0 средняя 
[Ac cast]
+21.2 +12.2 56 +25  1017.1  0.7  753  279           
06 11.07.12 250 (З) >10 км    3/0 верхняя 
[Ci fib]
+28.1 +10.8 34 +30  1017.2  0.4  753  273  +16.8         
09 11.07.12 250 (З) >10 км    8/0 верхняя 
[Ci]
+29.7 +8.6 27 +30  1017.2  0.1  753  272           
12 11.07.12 260 (З) >10 км    9/0 верхняя 
[Ci]
+30.9 +8.9 25 +31  1016.2  0.1  752  271           
15 11.07.12 260 (З) >10 км    3/0 верхняя 
[Ci fib]
+31.3 +8.4 24 +31  1015.1  -1  752  270    +31.8       
18 11.07.12 120 (ЮВ) >10 км    ясно 
+25.5 +10 38 +27  1015.6  0.3  752  275    +31.8       
21 11.07.12 тихо ()   10 км    ясно 
+21.9 +9.4 45 +22  1015.6  0.1  752  279           
00 12.07.12 тихо ()   10 км    ясно 
+19.2 +10.4 57 +21  1015.9  0.1  752  281           
03 12.07.12 140 (ЮВ) >10 км    3/0 <0100 м верхняя 
[Ci fib]
+23.1 +12.7 52 +28  1015.8  752  277           
06 12.07.12 200 (Ю) >10 км    ясно 
+29.7 +11.7 33 +33  1015.3  0.1  752  271           
09 12.07.12 210 (ЮЗ) >10 км    1/0 <0100 м верхняя 
[Ci fib]
+33.4 +5.6 18 +33  1014.4  -0.8  751  269           
12 12.07.12 230 (ЮЗ) >10 км    3/0 <0100 м верхняя 
[Ci fib]
+34.7 +3.9 15 +35  1013.2  -1.1  750  268           
15 12.07.12 150 (ЮВ) >10 км    3/0 <0100 м верхняя 
[Ci fib]
+33.4 +5.1 17 +33  1012.3  -1  749  268    +35.1       
18 12.07.12 090 (В) 10 км    6/1 600 м средняя, верхняя 
[Sc|Ac cast|Ci fib]
+29 +7.6 26 +29  1012.5  749  272    +35.1       
21 12.07.12 120 (ЮВ) 10 км    1/0 верхняя 
[Ci fib]
+24.2 +11.4 45 +27  1012.6  0.1  749  275           
00 13.07.12 110 (В) 10 км    3/3 600 м 
[Sc]
+23 +12.6 52 +28  1012.4  -0.3  749  276           
03 13.07.12 110 (В) >10 км    3/0 средняя 
[Ac cast]
+23.9 +12.7 49 +29  1012.1  -0.2  749  275           
06 13.07.12 160 (Ю) >10 км    10/0 средняя, верхняя 
[Ac cast|Ci fib]
+29.7 +10.1 30 +31  1011.6  -0.3  749  270  +22.3         
09 13.07.12 160 (Ю) >10 км    9/0 средняя 
[Ac cast]
+29.2 +8.1 27 +29  1011.5  0.1  749  271           
12 13.07.12 120 (ЮВ) >10 км    9/0 средняя 
[Ac cast]
+33.7 +7.4 20 +34  1009.9  -1.4  748  267           
15 13.07.12 130 (ЮВ) >10 км    8/0 средняя 
[Ac cast]
+32.6 +9.8 25 +34  1008.2  -1.4  746  267    +34.5       
18 13.07.12 110 (В) 10 км    4/0 
[Sc]
+26.8 +9.3 33 +27  1009  0.6  747  272    +34.5       
21 13.07.12 110 (В) 10 км    4/0 средняя, верхняя 
[Ac lent|Ci fib]
+24.2 +11.1 44 +27  1009  0.1  747  274           
00 14.07.12 120 (ЮВ) 10 км    9/4 1000 м средняя 
[Sc|Ac lent]
+23.6 +12.9 51 +29  1008.3  -0.8  746  274           
03 14.07.12 140 (ЮВ) >10 км    8/0 средняя 
[Ac lent]
+23.5 +13.8 54 +30  1008.8  0.5  747  274           
06 14.07.12 170 (Ю) >10 км    8/0 средняя, верхняя 
[Ac lent|Cc]
+28.6 +14.5 42 +37  1008.7  0.1  747  269    +22       
09 14.07.12 180 (Ю) >10 км    3/0 <0100 м верхняя 
[Cc]
+32.5 +8.3 22 +33  1007.9  -0.6  746  267           
12 14.07.12 250 (З) >10 км    8/6 1000 м кучево-дожд., верхняя 
[Cb cap|Ci ing]
+33.2 +7.6 20 +33  1006.9  -1  746  267           
15 14.07.12 300 (СЗ) >10 км    10/8 900 м кучево-дожд., средняя, верхняя 
[Cb calv|Ac trans|Cs]
+29.6 +13 36 +35  1007  746  269    +33.8       
18 14.07.12 330 (СЗ) 10 км    10/0 средняя 
[Ac As]
+25.9 +14.2 48 +33  1007.2  746  272    +33.8       
21 14.07.12 010 (С) 10 км    10/0 средняя 
[Ac cast]
+23.9 +14.8 57 +32  1007.2  0.1  745  273           
00 15.07.12 330 (СЗ) 10 км    6/0 средняя 
[Ac cast]
+21.2 +15.9 72 +32  1007.3  0.1  746  275           
03 15.07.12 290 (З) 10 км    8/0 средняя 
[Ac cast]
+20.4 +17.1 81 +33  1007.8  0.5  746  276           
06 15.07.12 300 (СЗ) >10 км    6/0 средняя, верхняя 
[As op|Ci fib]
+24.2 +18 68 +39  1007.8  0.2  746  272  +20         
09 15.07.12 300 (СЗ) >10 км    3/3 600 м 
[Cu hum]
+29.4 +17.5 49 +43  1007.6  746  268           
12 15.07.12 310 (СЗ) >10 км    8/6 600 м средняя 
[Cu hum|Ac lent]
+30.8 +16.2 41 +42  1007.5  746  267           
15 15.07.12 290 (З) >10 км    4/3 600 м верхняя 
[Cu hum|Cs]
+29.3 +14.6 41 +37  1007.7  0.1  746  269    +31       
18 15.07.12 310 (СЗ) >10 км    3/0 <0100 м верхняя 
[Ci fib]
+26.2 +16.1 54 +37  1008.8  0.9  747  271    +31       
21 15.07.12 тихо ()   10 км    ясно 
+21.7 +16.3 71 +33  1009.2  0.2  747  275           
00 16.07.12 180 (Ю) 10 км    3/0 <0100 м верхняя 
[Ci]
+19.4 +15.6 79 +31  1009.7  0.4  747  278           
03 16.07.12 180 (Ю) >10 км    5/0 <0100 м верхняя 
[Cs]
+22.4 +16.3 68 +33  1009.6  747  275           
06 16.07.12 260 (З) >10 км    8/0 <0100 м верхняя 
[Cs]
+27.4 +13.1 41 +33  1009.5  0.1  747  271  +19.1         
09 16.07.12 270 (З) >10 км    6/0 <0100 м средняя, верхняя 
[Ac cast|Cs]
+29.8 +11 31 +32  1008.7  -0.7  747  269           
12 16.07.12 270 (З) >10 км    6/0 <0100 м верхняя 
[Cs]
+31.4 +12.2 31 +36  1007.3  -1.2  746  267           
15 16.07.12 190 (Ю) >10 км    10/3 1500 м средняя, верхняя 
[Cu hum|Ac cast|Cs]
+30.2 +14.3 38 +38  1006.6  -0.7  745  268    +31.7       
18 16.07.12 230 (ЮЗ) >10 км    6/0 <0100 м средняя, верхняя 
[Ac lent|Ci fib]
+26.7 +15.1 49 +36  1007.1  0.4  746  271    +31.7       
21 16.07.12 280 (З) 10 км    1/0 <0100 м верхняя 
[Ci fib]
+24.2 +16.9 64 +36  1007.8  0.6  746  272           
00 17.07.12 050 (СВ) 10 км    3/0 верхняя 
[Ci fib]
+22 +17.2 74 +35  1008.1  0.2  746  274           
03 17.07.12 070 (В) >10 км    8/0 <0100 м средняя, верхняя 
[As op|Ci fib]
+22.5 +17.2 72 +35  1008.1  746  274           
06 17.07.12 130 (ЮВ) >10 км    8/0 верхняя 
[Ci sp]
+26.1 +17.6 59 +40  1007.7  -0.3  746  270  +21.2         
09 17.07.12 030 (СВ) >10 км    8/1 600 м верхняя 
[Cu med, cong|Cs]
+30 +15.9 43 +40  1005.5  -2  744  267           
12 17.07.12 140 (ЮВ) >10 км    8/1 1000 м средняя, верхняя 
[Cu med, cong|Ac cast|Cs]
+31.4 +14.4 36 +39  1001.8  -3.6  742  265           
15 17.07.12 290 (З) 4-10{16}  10 км  гроза, ливневой дождь  10/10 480 м кучево-дожд. 
[Cb cap]
+22.1 +16.6 71 +34  1002.7  0.5  742  273    +32.4       
18 17.07.12 010 (С) 10 км  сильн. гроза с градом  3/3 1000 м средняя, верхняя 
[Sc diur, vesp|Ac cuf|Ci fib]
+16.8   1000.5  -2.2  740      +32.4  0.0     
21 17.07.12 090 (В) 10 км  {гроза, ливн. осадки}  3/0 <0100 м средняя 
[Ac lent]
+19.5 +17 85 +34  999.9  -0.6  740  274           
00 18.07.12 310 (СЗ) 10 км  {гроза, ливн. осадки}  10/6 300 м средняя 
[Sc diur, vesp|Ac cuf]
+19.8 +18.2 91 +36  998.5  -0.6  739  273           
03 18.07.12 060 (СВ) >10 км    9/8 300 м средняя, верхняя 
[Frnb|Ac cuf|Ci fib]
+19.6 +17.5 88 +35  997  -2  738  273           
06 18.07.12 210 (ЮЗ) >10 км    10/9 300 м верхняя 
[Frnb|Ci fib]
+22.9 +16.9 69 +36  995.2  -2.6  736  270  +18.7    12     
09 18.07.12 260 (З) 4{11}  >10 км    10/8 480 м кучево-дожд., средняя 
[Cb cap|Ac lent]
+20.2 +15.7 75 +31  994.9  736  273           
12 18.07.12 290 (З) 10 км  слаб. дождь{гроза, ливн. осадки}  10/0 средняя 
[Frnb|As op]
+14.6 +13.3 92 +20  998.5  3.3  739  280           
15 18.07.12 260 (З) 3{15}  10 км  в посл. час дождь{ливн. осадки}  10/8 600 м средняя 
[Frnb|Ac trans]
+16.2 +13.6 85 +24  1002.9  4.5  742  279    +22.9       
18 18.07.12 260 (З) 10 км  {ливн. осадки, дождь}  3/0 средняя 
[Ac cast]
+16.8 +11.8 72 +21  1005.7  2.7  744  280    +22.9  13     
21 18.07.12 200 (Ю) 10 км    ясно 
+14.7 +11.3 80 +19  1007.5  1.6  745  283           
00 19.07.12 160 (Ю) 10 км    1/0 средняя 
[Ac cast]
+12.8 +10.8 88 +16  1008.5  746  285           
03 19.07.12 160 (Ю) 10 км    ясно 
+15.6 +12 79 +21  1009.6  1.1  747  282           
06 19.07.12 180 (Ю) >10 км    ясно <0100 м 
+21.2 +11.3 53 +24  1009.6  0.3  747  277  +12.6         
09 19.07.12 250 (З) >10 км    9/8 900 м верхняя 
[Cu med, cong|Ci fib]
+22.6 +7.5 38 +23  1009.2  -0.4  747  277           
12 19.07.12 200 (Ю) >10 км  в посл. час ливневой дождь  10/6 1080 м кучево-дожд., средняя, верхняя 
[Cb cap|Ac lent|Cc]
+21 +12.2 57 +25  1008.4  -0.8  746  277           
15 19.07.12 170 (Ю) >10 км    9/3 1000 м кучево-дожд., средняя, верхняя 
[Cb cap|Ac As|Cs]
+21.1 +12.1 56 +25  1007.2  -1.2  745  276    +24.1       
18 19.07.12 250 (З) 10 км    8/6 600 м средняя 
[Cu hum|Ac lent]
+17.4 +12.3 72 +23  1007.8  0.5  746  280    +24.1  0.3     
21 19.07.12 190 (Ю) 10 км    9/9 1000 м 
+15.5 +12.7 83 +22  1007.3  0.5  745  282           
00 20.07.12 170 (Ю) 10 км    8/0 средняя 
[As trans]
+14.3 +11.9 86 +20  1007.5  0.5  745  283           
03 20.07.12 тихо ()   10 км  {дождь}  8/0 <0100 м средняя 
[Ac lent]
+14.4 +12 85 +18  1008  0.5  746  283           
06 20.07.12 270 (З) >10 км    6/6 1000 м 
[Cu med, cong]
+16.5 +11.4 72 +20  1009.1  1.2  747  282  +13.9    0.5     
09 20.07.12 260 (З) >10 км    4/4 1000 м 
[Cu med, cong]
+19.5 +10.4 56 +22  1009.1  0.1  747  279           
12 20.07.12 250 (З) >10 км    8/3 1000 м верхняя 
[Cu hum|Cc]
+20.9 +9.6 48 +22  1008.7  -0.3  746  278           
15 20.07.12 200 (Ю) >10 км    8/3 1000 м средняя, верхняя 
[Sc diur, vesp|Ac lent|Ci fib]
+21.1 +10.1 49 +23  1007.4  -1.3  746  277    +21.6       
18 20.07.12 190 (Ю) 10 км    10/0 <0100 м средняя 
[Ac As]
+19.3 +12.1 63 +24  1006.4  -1  745  278    +21.6       
21 20.07.12 190 (Ю) 10 км  в посл. час ливневой дождь  6/6 300 м 
[Frnb]
+17 +15.8 93 +28  1005  -1.4  744  279           
00 21.07.12 240 (ЮЗ) 10 км    8/0 <0100 м средняя, верхняя 
[Ac lent|Ci fib]
+16.6 +14.5 87 +25  1004.7  -0.3  743  279           
03 21.07.12 260 (З) >10 км    3/0 <0100 м верхняя 
[Ci sp]
+17.4 +13 75 +24  1006.1  1.4  744  279           
06 21.07.12 260 (З) >10 км    6/0 средняя 
[Ac cast]
+21.3 +13.9 63 +28  1006.1  0.2  745  275  +16.4       
09 21.07.12 270 (З) 3-11{12}  10 км    9/4 600 м кучево-дожд., средняя 
[Cb cap|Ac As]
+21.4 +11.4 53 +25  1006.1  745  276           
12 21.07.12 310 (СЗ) 10 км    9/4 600 м кучево-дожд., средняя, верхняя 
[Cb cap|Ac lent|Ci sp]
+21.8 +12.3 55 +26  1007.1  745  276           
15 21.07.12 260 (З) 3{11}  >10 км  {ливн. осадки}  3/0 средняя 
[Ac lent]
+19.7 +12.7 64 +26  1009  1.8  747  278    +23.5       
18 21.07.12 250 (З) 10 км    4/3 1000 м средняя 
[Sc diur, vesp|Ac lent]
+18.3 +11.8 66 +23  1011.3  2.2  748  280    +23.5  0.3     
21 21.07.12 260 (З) 10 км    8/0 <0100 м средняя 
[Ac lent]
+17.1 +12.5 74 +23  1012.7  1.3  749  282           
00 22.07.12 290 (З) 10 км    ясно 
+16.3 +12.9 80 +22  1013.8  750  283           
03 22.07.12 290 (З) 10 км    10/3 700 м средняя, верхняя 
[Sc|Ac lent|Ci]
+16.8 +13.6 81 +24  1016.2  2.4  752  283           
06 22.07.12 290 (З) >10 км    8/8 600 м 
[Cu hum]
+19.2 +14 72 +27  1017.4  1.3  753  281  +15.7         
09 22.07.12 310 (СЗ) >10 км    4/4 600 м 
[Cu med, cong]
+22.4 +12.3 53 +27  1018.4  1.1  754  278           
12 22.07.12 260 (З) >10 км    3/3 600 м 
[Cu med, cong]
+24.4 +10.9 43 +27  1018.7  0.4  754  277           
15 22.07.12 290 (З) >10 км    3/0 <0100 м верхняя 
[Ci fib]
+24.2 +10.6 42 +26  1019.3  0.6  754  277    +25       
18 22.07.12 тихо ()   10 км    3/0 верхняя 
[Ci fib]
+19.2 +12.6 66 +24  1020.2  0.7  755  282    +25       
21 22.07.12 170 (Ю) 10 км    ясно 
+17.2 +12.4 73 +23  1020.6  0.2  755  284           
00 23.07.12 160 (Ю) 10 км    8/0 средняя, верхняя 
[Ac cast|Cs]
+16.7 +13 79 +23  1021  0.4  755  284           
03 23.07.12 160 (Ю) 10 км    10/0 средняя, верхняя 
[Ac cast|Cs]
+17.7 +14.2 80 +26  1020.9  755  283           
06 23.07.12 250 (З) >10 км    6/0 <0100 м верхняя 
[Cs]
+22.4 +14.2 60 +30  1020.2  -0.5  755  278  +16.2         
09 23.07.12 280 (З) >10 км    10/6 900 м кучево-дожд., средняя, верхняя 
[Cb cap|Ac As|Cc]
+24.8 +12.6 47 +29  1019.6  -0.5  755  276           
12 23.07.12 280 (З) 3{10}  10 км  слаб. дождь  10/10 1080 м 
[Ns]
+20 +15.5 75 +29  1020.1  0.3  755  280           
15 23.07.12 280 (З) >10 км  {дождь}  8/0 <0100 м средняя 
[Ac trans]
+20.2 +15.2 73 +29  1018.8  -1.2  754  280    +25       
18 23.07.12 270 (З) 10 км  {дождь}  3/0 средняя 
[As trans]
+18.6 +15 80 +29  1019.1  0.2  754  281         
21 23.07.12 300 (СЗ) 10 км    3/0 средняя 
[Ac trans]
+17.8 +13.6 76 +25  1018.7  -0.4  754  282           
00 24.07.12 310 (СЗ) 10 км    8/0 средняя 
[As trans]
+16.3 +12.7 79 +22  1018.6  -0.2  754  284           
03 24.07.12 320 (СЗ) 10 км    10/0 средняя 
[As trans]
+16.2 +12.3 78 +22  1019.1  -0.2  754  284           
06 24.07.12 300 (СЗ) >10 км    6/1 600 м средняя, верхняя 
[Cu med, cong|Ac lent|Cs]
+19.2 +11.9 63 +25  1019  754  282  +15.8         
09 24.07.12 290 (З) >10 км    8/3 600 м средняя 
[Cu med, cong|Ac cast]
+21.5 +9.5 46 +22  1018  -0.8  753  280           
12 24.07.12 290 (З) >10 км    3/3 1000 м средняя 
[Cu hum|Ac lent]
+23.4 +7.5 36 +23  1016.4  -1.6  752  278           
15 24.07.12 300 (СЗ) >10 км    3/1 1000 м средняя 
[Cu med, cong|Ac lent]
+22.8 +7.1 36 +23  1015.9  -0.5  752  278    +23.6       
18 24.07.12 310 (СЗ) 10 км    3/0 средняя 
[Ac lent]
+19.3 +10.4 56 +22  1016.5  0.4  752  281    +23.6       
21 24.07.12 300 (СЗ) 10 км    9/0 средняя 
[Ac lent]
+18.3 +11 62 +22  1016.5  0.4  752  282           
00 25.07.12 340 (С) 10 км    8/4 1000 м средняя 
[Sc|Ac lent]
+17.1 +11.6 70 +22  1016.6  0.4  752  283           
03 25.07.12 300 (СЗ) >10 км    3/0 средняя 
[Ac lent]
+16.5 +12.6 78 +22  1017.5  0.9  753  284           
06 25.07.12 290 (З) >10 км    5/5 1000 м 
[Cu med, cong]
+19.4 +13.1 67 +25  1017.3  753  281  +15.9         
09 25.07.12 290 (З) >10 км    9/9 900 м 
[Sc diur, vesp]
+21.1 +12.7 59 +26  1017.1  -0.2  753  279           
12 25.07.12 310 (СЗ) >10 км  {дождь}  8/3 600 м средняя 
[Sc diur, vesp|Ac cast]
+22 +12.6 55 +27  1016.7  -0.4  752  278           
15 25.07.12 320 (СЗ) >10 км    5/1 600 м средняя 
[Sc diur, vesp|Ac cast]
+21.9 +12.2 54 +26  1016.3  -0.4  752  278    +22.8       
18 25.07.12 330 (СЗ) 10 км    3/0 средняя 
[Ac cast]
+20.1 +12.5 62 +25  1017.2  0.8  753  280    +22.8  0.0     
21 25.07.12 310 (СЗ) 10 км    9/0 средняя 
[Ac cast]
+18.7 +13.7 73 +26  1017  -0.2  753  281           
00 26.07.12 тихо ()   10 км    1/0 средняя 
[Ac cast]
+15.6 +13.6 88 +22  1016.9  -0.3  752  284           
03 26.07.12 310 (СЗ) 10 км    8/0 средняя 
[Ac cast]
+18.5 +15.1 81 +29  1016.8  0.1  752  281           
06 26.07.12 290 (З) >10 км  {морось}  10/8 800 м средняя 
[Sc|Ac lent]
+19.1 +15.4 79 +29  1016.6  -0.2  752  280  +15.5         
09 26.07.12 330 (СЗ) 10 км  слаб. дождь  10/8 700 м средняя 
[Sc|As trans]
+19.8 +17.2 85 +34  1016.6  752  279           
12 26.07.12 300 (СЗ) >10 км  {дождь}  9/6 1000 м верхняя 
[Cu med, cong|Ci]
+23.3 +16.2 64 +34  1015.6  -0.9  752  276           
15 26.07.12 300 (СЗ) >10 км    8/0 <0100 м средняя, верхняя 
[Ac cast|Ci sp]
+23 +15.3 62 +32  1015.1  -0.5  751  276    +23.1       
18 26.07.12 310 (СЗ) 10 км    8/0 средняя, верхняя 
[Ac cast|Ci sp]
+21.2 +15.3 69 +30  1015.3  0.1  751  278    +22.8  0.5     
21 26.07.12 тихо ()   10 км    3/0 средняя 
[Ac cast]
+17.1 +15.1 88 +26  1015.4  0.1  751  282           
00 27.07.12 тихо ()   10 км    10/0 средняя, верхняя 
[Ac cast|Ci fib]
+15.9 +14.6 92 +24  1014.9  -0.5  751  283           
03 27.07.12 170 (Ю) 10 км    8/0 средняя, верхняя 
[Ac cast|Ci fib]
+19 +16.3 84 +32  1014.5  -0.5  751  279           
06 27.07.12 260 (З) >10 км    8/5 <0100 м средняя, верхняя 
[Ac lent|Cc]
+23 +14.5 59 +31  1013.5  -0.8  750  276  +15.5         
09 27.07.12 260 (З) >10 км    8/6 800 м средняя, верхняя 
[Sc diur, vesp|Ac lent|Ci fib]
+26 +15 51 +35  1012.1  -1.3  749  273           
12 27.07.12 260 (З) 10 км  гроза без осадков  10/8 1200 м кучево-дожд., средняя 
[Cb cap|Ac As]
+25.2 +15.3 54 +34  1010.3  -1.8  748  273           
15 27.07.12 180 (Ю) >10 км  слаб. дождь{гроза, ливн. осадки}  10/8 900 м средняя, верхняя 
[Sc|As op|Ci fib]
+18.4 +17.6 95 +33  1010.7  0.1  748  278    +27.1       
18 27.07.12 340 (С) 10 км  {гроза}  8/5 300 м кучево-дожд., средняя 
[Cb cap|Ac cast]
+18.7 +17.6 93 +34  1012.4  1.7  749  279    +27.1  14     
21 27.07.12 320 (СЗ) 10 км    ясно 
+17.3 +15.9 91 +29  1012.5  749  280           
00 28.07.12 350 (С) 10 км    3/0 <0100 м средняя 
[Ac cast]
+16.2 +14.5 90 +26  1013.7  1.1  750  282           
03 28.07.12 020 (С) >10 км    4/0 <0100 м средняя 
[Ac lent]
+15.1 +12.5 84 +21  1015.6  1.8  751  284           
06 28.07.12 020 (С) >10 км    4/3 1000 м верхняя 
[Cu med, cong|Ci fib]
+19.1 +13 68 +25  1015.9  0.4  752  281  +14.5         
09 28.07.12 020 (С) >10 км    3/3 1200 м 
[Cu med, cong]
+22 +11.1 50 +25  1016.1  0.3  752  278           
12 28.07.12 020 (С) >10 км    3/3 1000 м 
[Cu med, cong]
+22.7 +10.1 45 +24  1016.3  0.2  752  278           
15 28.07.12 010 (С) >10 км    3/3 1200 м 
[Cu med, cong]
+22.5 +9 42 +23  1016.5  0.2  752  279    +24.2       
18 28.07.12 020 (С) 10 км    ясно 
+19.2 +10.1 56 +21  1018  1.3  753  282           
21 28.07.12 020 (С) 10 км    ясно 
+16.4 +10.7 69 +20  1018.8  0.7  754  285           
00 29.07.12 030 (СВ) 10 км    1/1 600 м 
[Sc]
+14.2 +10.4 78 +17  1020.2  1.3  755  287           
03 29.07.12 050 (СВ) >10 км    ясно 
+14.4 +9.8 74 +16  1021.7  1.4  756  288           
06 29.07.12 030 (СВ) >10 км    3/1 1000 м верхняя 
[Cu med, cong|Ci fib]
+18.2 +7.9 51 +19  1022.1  0.5  756  284  +13.4         
09 29.07.12 360 (С) >10 км    3/3 1000 м 
[Cu med, cong]
+21 +7.2 41 +21  1021.8  0.1  756  282           
12 29.07.12 020 (С) >10 км    1/1 1000 м 
[Cu med, cong]
+22.6 +5.8 34 +23  1021  -0.7  756  280           
15 29.07.12 030 (СВ) >10 км    8/0 верхняя 
[Ci fib]
+21.9 +5.3 34 +22  1020.7  -0.4  755  281    +22.9       
18 29.07.12 020 (С) 10 км    3/0 <0100 м верхняя 
[Ci fib]
+18.4 +7.1 48 +20  1021.5  0.6  756  284    +22.9       
21 29.07.12 тихо ()   10 км    ясно 
+14.1 +8.2 68 +14  1021.6  756  288           
00 30.07.12 030 (СВ) н/о    н/о 
+13.6 +8.3 70 +15  1021.4  -0.2  756  289           
03 30.07.12 340 (С) >10 км    5/0 <0100 м верхняя 
[Ci fib]
+14.7 +9 69 +16  1022  0.6  756  288           
06 30.07.12 010 (С) >10 км    6/0 <0100 м верхняя 
[Cs]
+19.9 +9.5 51 +21  1021  -0.7  755  282  +12.5         
09 30.07.12 360 (С) >10 км    8/4 600 м верхняя 
[Sc|Cs]
+22.4 +7.8 39 +22  1019.7  -1.1  755  280           
12 30.07.12 340 (С) >10 км    8/6 600 м верхняя 
[Cu hum|Cs]
+22.1 +8.1 41 +22  1018.3  -1.4  754  280           
15 30.07.12 330 (СЗ) >10 км    3/0 <0100 м верхняя 
[Cc]
+22.6 +8.2 40 +23  1016.9  -1.3  753  279    +23.5       
18 30.07.12 320 (СЗ) 10 км    1/0 средняя 
[Ac lent]
+19.9 +11.2 57 +24  1016.9  0.1  752  281    +23.5       
21 30.07.12 310 (СЗ) 10 км    3/0 средняя 
[Ac cast]
+17.6 +12.5 72 +24  1016.5  -0.5  752  282           
00 31.07.12 350 (С) 10 км    9/0 средняя 
[Ac cast]
+18.2 +13.2 73 +26  1016.2  -0.3  752  281           
03 31.07.12 тихо ()   10 км    9/9 900 м 
[Sc]
+18.5 +14.2 76 +26  1016  -0.2  752  281           
06 31.07.12 290 (З) >10 км    10/10 800 м 
[Sc]
+20.8 +14.9 69 +29  1015.6  -0.2  752  278  +17.2         
09 31.07.12 050 (СВ) >10 км    3/3 1000 м 
[Cu med, cong]
+24.8 +13.6 50 +31  1014.4  -1  751  275           
12 31.07.12 020 (С) >10 км    6/6 600 м 
[Cu med, cong]
+25.8 +12.9 45 +31  1013.7  -0.7  750  274           
15 31.07.12 320 (СЗ) >10 км    6/5 600 м верхняя 
[Cu hum|Ci fib]
+26.2 +14 47 +33  1013.2  -0.5  750  273    +27.3       
18 31.07.12 тихо ()   >10 км    ясно <0100 м 
+20.6 +15.6 73 +30  1014  -0.5  750  278    +27.3       
21 31.07.12 тихо ()   10 км    ясно 
+20.1 +14.4 70 +28  1013.9  0.1  750  279           
00 01.08.12 010 (С) 10 км    ясно 
+18.1 +14.7 81 +28  1014.7  0.7  751  281           
03 01.08.12 310 (СЗ) >10 км    8/0 <0100 м верхняя 
[Ci sp]
+19.7 +15.1 75 +30  1015.4  0.7  751  279           
Время (UTC), дата Ветер
(°,м/с) 
Видим.   Явления Облачность Т
(°С)
Тd
(°С)
f(%) Тe
(°С)
Pmin
(гПа)
dP
(гПа)
Po
(мм)
O2
(г/м3)
Тmin Tmax R s Состояние
почвы